UAE001 ULLI-OMDB

Flight info

Callsign UAE001
Flight time N/A
Altitude 37000
Route SUGIN1C SUGIN T873 NIRGI T73 DESUD P164 ROKUR T784 OTKOL T787 OKSUD T778 MOF M161 URL M158 ATR W324 AKT P574 RUTIL/N0486F370 P574 ULDUS N39 OBRIX M715 PURKI W32 SRJ L430 TAVNO M324 PATAT L519 PUVAL
Aircraft A359/H-SDE2E3GHIJ3J4J5LM1ORWXY/LB1D1

Departure

Time 2026-05-07 09:07
Airport Pulkovo Airport (ULLI)

Arrival

Time N/A
Airport Dubai International Airport (OMDB)
Time Latitude Longitude Altitude Speed Heading
2026-05-07 08:52 59.79717 30.26628 94 ft 0 kts 107°
2026-05-07 08:57 59.79724 30.26585 90 ft 4 kts 107°
2026-05-07 08:57 59.79729 30.26552 93 ft 0 kts 107°
2026-05-07 09:00 59.79729 30.26553 90 ft 0 kts 106°
2026-05-07 09:00 59.79725 30.26558 95 ft 2 kts 131°
2026-05-07 09:00 59.79720 30.26560 95 ft 0 kts 158°
2026-05-07 09:00 59.79703 30.26528 93 ft 10 kts 231°
2026-05-07 09:01 59.79636 30.26381 94 ft 16 kts 211°
2026-05-07 09:01 59.79545 30.26309 95 ft 13 kts 208°
2026-05-07 09:01 59.79528 30.26170 96 ft 11 kts 279°
2026-05-07 09:01 59.79548 30.26021 95 ft 12 kts 286°
2026-05-07 09:02 59.79574 30.25850 97 ft 14 kts 286°
2026-05-07 09:02 59.79601 30.25662 95 ft 15 kts 286°
2026-05-07 09:02 59.79633 30.25446 92 ft 17 kts 286°
2026-05-07 09:02 59.79668 30.25208 95 ft 19 kts 286°
2026-05-07 09:03 59.79706 30.24950 92 ft 20 kts 286°
2026-05-07 09:03 59.79746 30.24676 95 ft 21 kts 286°
2026-05-07 09:03 59.79789 30.24385 93 ft 23 kts 286°
2026-05-07 09:03 59.79835 30.24100 92 ft 22 kts 287°
2026-05-07 09:04 59.79878 30.23802 92 ft 23 kts 284°
2026-05-07 09:04 59.79923 30.23493 91 ft 24 kts 286°
2026-05-07 09:04 59.79970 30.23172 92 ft 26 kts 286°
2026-05-07 09:04 59.80014 30.22881 90 ft 21 kts 288°
2026-05-07 09:05 59.80055 30.22607 91 ft 18 kts 285°
2026-05-07 09:05 59.80087 30.22391 91 ft 17 kts 286°
2026-05-07 09:05 59.80114 30.22144 90 ft 19 kts 265°
2026-05-07 09:05 59.80045 30.21950 92 ft 17 kts 217°
2026-05-07 09:06 59.79969 30.22012 92 ft 13 kts 114°
2026-05-07 09:06 59.79932 30.22231 91 ft 33 kts 108°
2026-05-07 09:06 59.79804 30.23085 94 ft 94 kts 107°
2026-05-07 09:06 59.79566 30.24681 94 ft 145 kts 106°
2026-05-07 09:07 59.79235 30.26900 117 ft 187 kts 106°
2026-05-07 09:07 59.78866 30.29536 368 ft 210 kts 104°
2026-05-07 09:07 59.78456 30.32347 1202 ft 208 kts 105°
2026-05-07 09:07 59.78032 30.35117 1974 ft 216 kts 105°
2026-05-07 09:08 59.77579 30.38120 2375 ft 236 kts 106°
2026-05-07 09:08 59.77104 30.41259 3090 ft 238 kts 106°
2026-05-07 09:08 59.76629 30.44400 3911 ft 239 kts 105°
2026-05-07 09:08 59.76149 30.47586 4587 ft 243 kts 105°
2026-05-07 09:09 59.75658 30.50824 5283 ft 247 kts 105°
2026-05-07 09:09 59.75160 30.54111 6050 ft 250 kts 105°
2026-05-07 09:09 59.74659 30.57429 6802 ft 253 kts 105°
2026-05-07 09:09 59.74191 30.60835 7445 ft 259 kts 104°
2026-05-07 09:10 59.73740 30.64313 8151 ft 264 kts 105°
2026-05-07 09:10 59.73272 30.67888 8806 ft 273 kts 106°
2026-05-07 09:10 59.72780 30.71588 9432 ft 281 kts 107°
2026-05-07 09:10 59.72271 30.75381 10080 ft 288 kts 108°
2026-05-07 09:11 59.71747 30.79258 10463 ft 304 kts 108°
2026-05-07 09:11 59.71179 30.83437 10713 ft 324 kts 108°
2026-05-07 09:11 59.70574 30.87886 10968 ft 344 kts 108°
2026-05-07 09:11 59.69938 30.92564 11292 ft 360 kts 108°
2026-05-07 09:12 59.69277 30.97414 11832 ft 368 kts 109°
2026-05-07 09:12 59.68605 31.02336 12459 ft 373 kts 109°
2026-05-07 09:12 59.67919 31.07340 13102 ft 379 kts 109°
2026-05-07 09:12 59.67221 31.12410 13736 ft 385 kts 109°
2026-05-07 09:13 59.66509 31.17560 14280 ft 390 kts 109°
2026-05-07 09:13 59.65789 31.22759 14866 ft 394 kts 109°
2026-05-07 09:13 59.65061 31.27995 15464 ft 397 kts 109°
2026-05-07 09:13 59.64323 31.33287 16023 ft 401 kts 109°
2026-05-07 09:14 59.63576 31.38622 16606 ft 405 kts 109°
2026-05-07 09:14 59.62819 31.44010 17206 ft 409 kts 109°
2026-05-07 09:14 59.62055 31.49436 17838 ft 412 kts 109°
2026-05-07 09:14 59.61282 31.54904 18408 ft 415 kts 109°
2026-05-07 09:15 59.60495 31.60441 18870 ft 422 kts 109°
2026-05-07 09:15 59.59697 31.66038 19393 ft 426 kts 110°
2026-05-07 09:15 59.58890 31.71688 19929 ft 430 kts 110°
2026-05-07 09:15 59.58072 31.77388 20447 ft 434 kts 110°
2026-05-07 09:16 59.57245 31.83137 20969 ft 438 kts 110°
2026-05-07 09:16 59.56408 31.88930 21500 ft 442 kts 110°
2026-05-07 09:16 59.55560 31.94781 21999 ft 446 kts 110°
2026-05-07 09:16 59.54702 32.00677 22511 ft 449 kts 110°
2026-05-07 09:17 59.53712 32.06518 23010 ft 449 kts 117°
2026-05-07 09:17 59.52264 32.11939 23500 ft 445 kts 130°
2026-05-07 09:17 59.50362 32.16699 23905 ft 442 kts 138°
2026-05-07 09:17 59.48256 32.21143 24220 ft 446 kts 141°
2026-05-07 09:18 59.46050 32.25451 24665 ft 448 kts 143°
2026-05-07 09:18 59.43801 32.29715 25133 ft 450 kts 143°
2026-05-07 09:18 59.41535 32.33986 25563 ft 452 kts 143°
2026-05-07 09:18 59.39300 32.38235 25598 ft 444 kts 143°
2026-05-07 09:19 59.37106 32.42438 25514 ft 438 kts 143°
2026-05-07 09:19 59.34947 32.46597 25431 ft 433 kts 143°
2026-05-07 09:19 59.33532 32.49331 25338 ft 430 kts 143°
2026-05-07 09:19 59.31417 32.53416 25239 ft 425 kts 144°
2026-05-07 09:20 59.29324 32.57454 25144 ft 420 kts 144°
2026-05-07 09:20 59.27253 32.61444 25054 ft 416 kts 144°
2026-05-07 09:20 59.25202 32.65385 24962 ft 411 kts 144°
2026-05-07 09:20 59.23175 32.69273 24888 ft 406 kts 144°
2026-05-07 09:21 59.21167 32.73115 24817 ft 402 kts 144°
2026-05-07 09:21 59.19180 32.76911 24741 ft 398 kts 144°
2026-05-07 09:21 59.17214 32.80660 24682 ft 393 kts 144°
2026-05-07 09:21 59.15268 32.84363 24631 ft 389 kts 144°
2026-05-07 09:22 59.13342 32.88025 24563 ft 385 kts 145°
2026-05-07 09:22 59.11435 32.91643 24494 ft 381 kts 145°
2026-05-07 09:22 59.09549 32.95217 24444 ft 377 kts 145°
2026-05-07 09:22 59.07681 32.98748 24391 ft 373 kts 145°
2026-05-07 09:23 59.05831 33.02240 24333 ft 369 kts 145°
2026-05-07 09:23 59.03999 33.05695 24294 ft 365 kts 145°
2026-05-07 09:23 59.02185 33.09109 24244 ft 361 kts 146°
2026-05-07 09:23 59.00390 33.12483 24199 ft 358 kts 146°
2026-05-07 09:24 58.98612 33.15820 24143 ft 354 kts 146°
2026-05-07 09:24 58.96851 33.19120 24095 ft 350 kts 146°
2026-05-07 09:24 58.95108 33.22381 24068 ft 347 kts 146°
2026-05-07 09:24 58.93383 33.25605 24039 ft 343 kts 146°
2026-05-07 09:25 58.91674 33.28794 23991 ft 339 kts 146°
2026-05-07 09:25 58.89985 33.31951 23931 ft 336 kts 146°
2026-05-07 09:25 58.88313 33.35064 23886 ft 332 kts 147°
2026-05-07 09:25 58.86657 33.38137 23833 ft 328 kts 147°
2026-05-07 09:26 58.85016 33.41178 23799 ft 325 kts 147°
2026-05-07 09:26 58.83394 33.44176 23738 ft 321 kts 147°
2026-05-07 09:26 58.81807 33.47108 23682 ft 317 kts 147°
2026-05-07 09:26 58.80222 33.50036 23636 ft 314 kts 147°
2026-05-07 09:27 58.78655 33.52929 23597 ft 310 kts 147°
2026-05-07 09:27 58.77106 33.55784 23524 ft 306 kts 147°
2026-05-07 09:27 58.74065 33.61379 23400 ft 298 kts 147°
2026-05-07 09:28 58.72576 33.64113 23334 ft 294 kts 148°
2026-05-07 09:28 58.71107 33.66807 23267 ft 290 kts 148°
2026-05-07 09:28 58.69659 33.69459 23221 ft 285 kts 148°
2026-05-07 09:28 58.68234 33.72068 23149 ft 280 kts 148°
2026-05-07 09:29 58.66833 33.74628 23080 ft 276 kts 148°
2026-05-07 09:29 58.65457 33.77141 23005 ft 270 kts 148°
2026-05-07 09:29 58.64108 33.79604 22930 ft 265 kts 149°
2026-05-07 09:29 58.62788 33.82010 22847 ft 259 kts 149°
2026-05-07 09:30 58.61497 33.84361 22724 ft 252 kts 149°
2026-05-07 09:30 58.60244 33.86647 22589 ft 245 kts 149°
2026-05-07 09:30 58.58988 33.88903 22632 ft 250 kts 150°
2026-05-07 09:30 58.57742 33.91108 23164 ft 235 kts 151°
2026-05-07 09:31 58.56577 33.93184 23603 ft 226 kts 152°
2026-05-07 09:31 58.55375 33.95249 23507 ft 240 kts 153°
2026-05-07 09:31 58.54062 33.97362 23465 ft 250 kts 154°
2026-05-07 09:31 58.52744 33.99414 23875 ft 237 kts 155°
2026-05-07 09:32 58.51492 34.01336 24213 ft 228 kts 157°
2026-05-07 09:32 58.50203 34.03210 24165 ft 239 kts 158°
2026-05-07 09:32 58.48810 34.05086 24121 ft 248 kts 159°
2026-05-07 09:32 58.47405 34.06888 24463 ft 237 kts 161°
2026-05-07 09:33 58.46059 34.08565 24801 ft 228 kts 163°
2026-05-07 09:33 58.44690 34.10164 24777 ft 236 kts 165°
2026-05-07 09:33 58.43224 34.11719 24716 ft 244 kts 166°
2026-05-07 09:33 58.41734 34.13181 25021 ft 236 kts 168°
2026-05-07 09:34 58.40297 34.14517 25359 ft 226 kts 170°
2026-05-07 09:34 58.38855 34.15745 25382 ft 230 kts 172°
2026-05-07 09:34 58.37332 34.16872 25315 ft 238 kts 175°
2026-05-07 09:34 58.35774 34.17882 25531 ft 233 kts 177°
2026-05-07 09:35 58.34265 34.18758 25877 ft 222 kts 180°
2026-05-07 09:35 58.32797 34.19486 25939 ft 222 kts 182°
2026-05-07 09:35 58.31255 34.20073 25862 ft 230 kts 184°
2026-05-07 09:35 58.29665 34.20503 25961 ft 229 kts 187°
2026-05-07 09:36 58.28119 34.20787 26294 ft 218 kts 190°
2026-05-07 09:36 58.26625 34.20925 26500 ft 213 kts 193°
2026-05-07 09:36 58.25126 34.20885 26476 ft 218 kts 196°
2026-05-07 09:36 58.23602 34.20641 26494 ft 220 kts 200°
2026-05-07 09:37 58.22112 34.20219 26728 ft 212 kts 203°
2026-05-07 09:37 58.20700 34.19645 26973 ft 205 kts 207°
2026-05-07 09:37 58.19335 34.18887 27015 ft 205 kts 211°
2026-05-07 09:37 58.17993 34.17899 26973 ft 208 kts 215°
2026-05-07 09:38 58.16700 34.16686 27083 ft 206 kts 219°
2026-05-07 09:38 58.15493 34.15305 27285 ft 200 kts 223°
2026-05-07 09:38 58.14382 34.13778 27442 ft 196 kts 227°
2026-05-07 09:38 58.13359 34.12076 27497 ft 197 kts 231°
2026-05-07 09:39 58.12420 34.10168 27525 ft 198 kts 236°
2026-05-07 09:39 58.11596 34.08097 27672 ft 195 kts 240°
2026-05-07 09:39 58.10908 34.05916 27845 ft 192 kts 246°
2026-05-07 09:39 58.10359 34.03622 27956 ft 192 kts 251°
2026-05-07 09:40 58.09955 34.01203 27992 ft 195 kts 256°
2026-05-07 09:40 58.09705 33.98674 28071 ft 196 kts 262°
2026-05-07 09:40 58.09622 33.96100 28217 ft 196 kts 267°
2026-05-07 09:40 58.09708 33.93530 28359 ft 197 kts 272°
2026-05-07 09:41 58.09965 33.90967 28417 ft 201 kts 278°
2026-05-07 09:41 58.10395 33.88442 28450 ft 207 kts 284°
2026-05-07 09:41 58.11008 33.85955 28560 ft 211 kts 290°
2026-05-07 09:41 58.11795 33.83605 28766 ft 212 kts 296°
2026-05-07 09:42 58.12747 33.81460 28925 ft 215 kts 302°
2026-05-07 09:42 58.13871 33.79510 28935 ft 224 kts 308°
2026-05-07 09:42 58.15176 33.77760 28899 ft 235 kts 315°
2026-05-07 09:42 58.16645 33.76273 28979 ft 243 kts 322°
2026-05-07 09:43 58.18218 33.75141 29160 ft 248 kts 329°
2026-05-07 09:43 58.19938 33.74369 29268 ft 255 kts 336°
2026-05-07 09:43 58.21740 33.74007 29268 ft 266 kts 344°
2026-05-07 09:43 58.23606 33.74062 29270 ft 277 kts 351°
2026-05-07 09:44 58.25545 33.74567 29354 ft 285 kts 359°
2026-05-07 09:44 58.27481 33.75537 29494 ft 290 kts
2026-05-07 09:44 58.29379 33.76966 29578 ft 298 kts 14°
2026-05-07 09:45 58.33016 33.81199 29625 ft 316 kts 29°
2026-05-07 09:45 58.36194 33.87107 29819 ft 323 kts 44°
2026-05-07 09:46 58.38688 33.94365 29877 ft 333 kts 59°
2026-05-07 09:46 58.40373 34.02632 30005 ft 335 kts 74°
2026-05-07 09:47 58.41142 34.11387 30108 ft 335 kts 89°
2026-05-07 09:47 58.40991 34.20242 30173 ft 333 kts 103°
2026-05-07 09:48 58.39955 34.28725 30281 ft 325 kts 117°
2026-05-07 09:48 58.38106 34.36400 30396 ft 312 kts 130°
2026-05-07 09:49 58.35572 34.42924 30428 ft 303 kts 144°
2026-05-07 09:49 58.34078 34.45702 30433 ft 297 kts 151°
2026-05-07 09:49 58.32474 34.48103 30492 ft 289 kts 158°
2026-05-07 09:49 58.30792 34.50104 30569 ft 281 kts 165°
2026-05-07 09:50 58.29055 34.51690 30603 ft 273 kts 172°
2026-05-07 09:50 58.27278 34.52851 30590 ft 267 kts 179°
2026-05-07 09:50 58.25483 34.53578 30593 ft 261 kts 186°
2026-05-07 09:50 58.23706 34.53864 30647 ft 252 kts 193°
2026-05-07 09:51 58.22010 34.53722 30699 ft 243 kts 200°
2026-05-07 09:51 58.20370 34.53165 30740 ft 236 kts 207°
2026-05-07 09:51 58.18834 34.52202 30744 ft 230 kts 214°
2026-05-07 09:51 58.17423 34.50851 30752 ft 225 kts 222°
2026-05-07 09:52 58.16172 34.49152 30786 ft 219 kts 229°
2026-05-07 09:52 58.15109 34.47151 30827 ft 213 kts 237°
2026-05-07 09:52 58.14256 34.44894 30854 ft 210 kts 244°
2026-05-07 09:52 58.13624 34.42419 30865 ft 209 kts 252°
2026-05-07 09:53 58.13229 34.39778 30882 ft 209 kts 259°
2026-05-07 09:53 58.13086 34.37044 30919 ft 210 kts 267°
2026-05-07 09:53 58.13205 34.34289 30959 ft 212 kts 275°
2026-05-07 09:53 58.13589 34.31573 30945 ft 217 kts 283°
2026-05-07 09:54 58.14238 34.28943 30924 ft 224 kts 291°
2026-05-07 09:54 58.15143 34.26482 30928 ft 232 kts 300°
2026-05-07 09:54 58.16290 34.24269 31009 ft 238 kts 308°
2026-05-07 09:54 58.17646 34.22397 31093 ft 245 kts 316°
2026-05-07 09:55 58.19189 34.20914 31115 ft 254 kts 325°
2026-05-07 09:55 58.20904 34.19854 31095 ft 265 kts 333°
2026-05-07 09:55 58.22763 34.19263 31081 ft 277 kts 342°
2026-05-07 09:55 58.24721 34.19186 31113 ft 286 kts 351°
2026-05-07 09:56 58.26720 34.19649 31188 ft 293 kts 359°
2026-05-07 09:56 58.30688 34.22194 31205 ft 311 kts 16°
2026-05-07 09:57 58.34392 34.26803 31237 ft 325 kts 33°
2026-05-07 09:57 58.37498 34.33179 31333 ft 333 kts 49°
2026-05-07 09:58 58.39805 34.40953 31317 ft 341 kts 65°
2026-05-07 09:58 58.41153 34.49609 31396 ft 340 kts 81°
2026-05-07 09:59 58.41485 34.58625 31314 ft 345 kts 96°
2026-05-07 09:59 58.40835 34.67637 31367 ft 338 kts 110°
2026-05-07 09:59 58.40176 34.71874 31494 ft 330 kts 117°
2026-05-07 10:00 58.39313 34.75886 31501 ft 326 kts 125°
2026-05-07 10:00 58.36980 34.83208 31383 ft 320 kts 139°
2026-05-07 10:01 58.34025 34.89189 31575 ft 300 kts 153°
2026-05-07 10:01 58.32388 34.91576 31586 ft 293 kts 160°
2026-05-07 10:01 58.30653 34.93547 31483 ft 288 kts 166°
2026-05-07 10:01 58.28870 34.95056 31486 ft 281 kts 173°
2026-05-07 10:02 58.27039 34.96125 31529 ft 270 kts 180°
2026-05-07 10:02 58.25226 34.96717 31610 ft 260 kts 188°
2026-05-07 10:02 58.23451 34.96832 31604 ft 252 kts 195°
2026-05-07 10:02 58.21729 34.96469 31553 ft 247 kts 203°
2026-05-07 10:03 58.20091 34.95642 31541 ft 241 kts 211°
2026-05-07 10:03 58.18587 34.94390 31605 ft 232 kts 219°
2026-05-07 10:03 58.17258 34.92762 31685 ft 224 kts 226°
2026-05-07 10:03 58.16124 34.90798 31689 ft 219 kts 234°
2026-05-07 10:04 58.15197 34.88515 31628 ft 218 kts 243°
2026-05-07 10:04 58.14504 34.85968 31613 ft 217 kts 251°
2026-05-07 10:04 58.14070 34.83248 31662 ft 215 kts 259°
2026-05-07 10:04 58.13912 34.80445 31714 ft 214 kts 267°
2026-05-07 10:05 58.14038 34.77617 31714 ft 218 kts 276°
2026-05-07 10:05 58.14453 34.74817 31674 ft 225 kts 284°
2026-05-07 10:05 58.15158 34.72126 31673 ft 232 kts 293°
2026-05-07 10:05 58.16136 34.69654 31706 ft 238 kts 302°
2026-05-07 10:06 58.17365 34.67495 31804 ft 245 kts 311°
2026-05-07 10:06 58.18821 34.65722 31839 ft 253 kts 320°
2026-05-07 10:06 58.20474 34.64390 31829 ft 264 kts 329°
2026-05-07 10:06 58.22296 34.63537 31799 ft 276 kts 338°
2026-05-07 10:07 58.23577 34.63258 31794 ft 283 kts 344°
2026-05-07 10:07 58.25578 34.63296 31829 ft 292 kts 353°
2026-05-07 10:07 58.27612 34.63903 31878 ft 300 kts
2026-05-07 10:08 58.31617 34.66821 31858 ft 318 kts 19°
2026-05-07 10:08 58.35272 34.71882 31909 ft 332 kts 36°
2026-05-07 10:09 58.38257 34.78779 31831 ft 345 kts 53°
2026-05-07 10:09 58.40358 34.87061 31891 ft 348 kts 70°
2026-05-07 10:10 58.41406 34.96028 31946 ft 347 kts 86°
2026-05-07 10:10 58.41377 35.05224 31890 ft 346 kts 102°
2026-05-07 10:11 58.40316 35.13966 32049 ft 330 kts 117°
2026-05-07 10:11 58.38350 35.21704 32007 ft 322 kts 133°
2026-05-07 10:12 58.35569 35.28227 31943 ft 310 kts 148°
2026-05-07 10:12 58.33972 35.30869 32064 ft 299 kts 155°
2026-05-07 10:12 58.32282 35.33060 32112 ft 290 kts 163°
2026-05-07 10:12 58.30511 35.34790 32047 ft 284 kts 171°
2026-05-07 10:13 58.28670 35.36048 31979 ft 278 kts 178°
2026-05-07 10:13 58.26811 35.36818 32003 ft 269 kts 186°
2026-05-07 10:13 58.24992 35.37098 32085 ft 257 kts 193°
2026-05-07 10:13 58.23244 35.36897 32115 ft 248 kts 201°
2026-05-07 10:14 58.21585 35.36213 32084 ft 241 kts 209°
2026-05-07 10:14 58.20063 35.35080 32027 ft 236 kts 217°
2026-05-07 10:14 58.18681 35.33504 32040 ft 228 kts 226°
2026-05-07 10:14 58.17508 35.31557 32100 ft 221 kts 234°
2026-05-07 10:15 58.16575 35.29304 32089 ft 216 kts 242°
2026-05-07 10:15 58.15896 35.26774 32039 ft 216 kts 251°
2026-05-07 10:15 58.15492 35.24016 31949 ft 219 kts 260°
2026-05-07 10:15 58.15385 35.21139 31973 ft 220 kts 269°
2026-05-07 10:16 58.15586 35.18268 32052 ft 221 kts 278°
2026-05-07 10:16 58.16091 35.15506 32088 ft 225 kts 287°
2026-05-07 10:16 58.16893 35.12904 32056 ft 234 kts 296°
2026-05-07 10:16 58.17983 35.10529 31991 ft 245 kts 306°
2026-05-07 10:17 58.19335 35.08481 32001 ft 253 kts 315°
2026-05-07 10:17 58.20904 35.06865 32066 ft 261 kts 324°
2026-05-07 10:17 58.22651 35.05739 32094 ft 270 kts 334°
2026-05-07 10:17 58.24542 35.05140 32063 ft 282 kts 343°
2026-05-07 10:18 58.26546 35.05103 32061 ft 294 kts 352°
2026-05-07 10:18 58.30646 35.06808 32137 ft 310 kts 10°
2026-05-07 10:19 58.34531 35.10828 32131 ft 327 kts 28°
2026-05-07 10:19 58.37891 35.16895 32149 ft 338 kts 45°
2026-05-07 10:20 58.40423 35.24515 32198 ft 343 kts 62°
2026-05-07 10:20 58.41971 35.33176 32156 ft 347 kts 79°
2026-05-07 10:21 58.42452 35.42282 32218 ft 343 kts 95°
2026-05-07 10:21 58.41873 35.51225 32204 ft 338 kts 110°
2026-05-07 10:22 58.40313 35.59549 32203 ft 329 kts 125°
2026-05-07 10:22 58.37932 35.66761 32250 ft 315 kts 140°
2026-05-07 10:23 58.34900 35.72548 32206 ft 303 kts 154°
2026-05-07 10:23 58.33202 35.74828 32214 ft 295 kts 161°
2026-05-07 10:23 58.31431 35.76661 32259 ft 286 kts 168°
2026-05-07 10:23 58.29616 35.78041 32291 ft 277 kts 175°
2026-05-07 10:24 58.27779 35.78967 32265 ft 270 kts 182°
2026-05-07 10:24 58.25939 35.79442 32237 ft 264 kts 189°
2026-05-07 10:24 58.24128 35.79466 32241 ft 256 kts 197°
2026-05-07 10:24 58.22390 35.79055 32271 ft 248 kts 204°
2026-05-07 10:25 58.20752 35.78235 32316 ft 240 kts 211°
2026-05-07 10:25 58.19235 35.77018 32300 ft 234 kts 218°
2026-05-07 10:25 58.17860 35.75422 32264 ft 230 kts 225°
2026-05-07 10:25 58.16654 35.73487 32266 ft 225 kts 232°
2026-05-07 10:26 58.15642 35.71267 32283 ft 220 kts 239°
2026-05-07 10:26 58.14855 35.68857 32330 ft 217 kts 247°
2026-05-07 10:26 58.14284 35.66223 32323 ft 216 kts 254°
2026-05-07 10:26 58.13954 35.63445 32278 ft 217 kts 262°
2026-05-07 10:27 58.13874 35.60579 32290 ft 219 kts 269°
2026-05-07 10:27 58.14052 35.57706 32315 ft 221 kts 277°
2026-05-07 10:27 58.14486 35.54894 32339 ft 225 kts 284°
2026-05-07 10:27 58.15174 35.52204 32339 ft 230 kts 292°
2026-05-07 10:28 58.16111 35.49689 32320 ft 237 kts 300°
2026-05-07 10:28 58.17282 35.47416 32306 ft 245 kts 308°
2026-05-07 10:28 58.18668 35.45447 32363 ft 253 kts 315°
2026-05-07 10:28 58.20238 35.43852 32410 ft 260 kts 323°
2026-05-07 10:29 58.21963 35.42668 32426 ft 268 kts 331°
2026-05-07 10:29 58.23822 35.41919 32394 ft 279 kts 339°
2026-05-07 10:29 58.25789 35.41629 32363 ft 289 kts 347°
2026-05-07 10:30 58.29876 35.42538 32423 ft 304 kts
2026-05-07 10:30 58.31917 35.43751 32432 ft 312 kts 10°
2026-05-07 10:30 58.35848 35.47646 32398 ft 326 kts 25°
2026-05-07 10:31 58.39341 35.53362 32431 ft 336 kts 41°
2026-05-07 10:31 58.42151 35.60585 32443 ft 344 kts 56°
2026-05-07 10:32 58.43264 35.64678 32332 ft 351 kts 63°
2026-05-07 10:32 58.44160 35.69035 32297 ft 354 kts 70°
2026-05-07 10:32 58.45227 35.78124 32462 ft 348 kts 85°
2026-05-07 10:33 58.45314 35.87338 32374 ft 348 kts 99°
2026-05-07 10:33 58.44465 35.96345 32473 ft 337 kts 113°
2026-05-07 10:34 58.43738 36.00526 32606 ft 328 kts 119°
2026-05-07 10:34 58.42821 36.04486 32581 ft 325 kts 126°
2026-05-07 10:34 58.41707 36.08248 32429 ft 326 kts 132°
2026-05-07 10:34 58.40409 36.11773 32377 ft 322 kts 139°
2026-05-07 10:35 58.38976 36.14975 32489 ft 312 kts 145°
2026-05-07 10:35 58.37443 36.17808 32595 ft 302 kts 151°
2026-05-07 10:35 58.35818 36.20274 32579 ft 297 kts 158°
2026-05-07 10:35 58.34090 36.22385 32473 ft 294 kts 164°
2026-05-07 10:36 58.32277 36.24123 32414 ft 289 kts 170°
2026-05-07 10:36 58.30429 36.25462 32493 ft 279 kts 176°
2026-05-07 10:36 58.28595 36.26395 32588 ft 268 kts 182°
2026-05-07 10:36 58.26777 36.26932 32584 ft 261 kts 189°
2026-05-07 10:37 58.24974 36.27068 32486 ft 258 kts 195°
2026-05-07 10:37 58.23203 36.26808 32453 ft 253 kts 201°
2026-05-07 10:37 58.21509 36.26173 32517 ft 244 kts 207°
2026-05-07 10:37 58.19928 36.25195 32554 ft 235 kts 213°
2026-05-07 10:38 58.18468 36.23887 32479 ft 231 kts 219°
2026-05-07 10:38 58.17105 36.22229 32268 ft 235 kts 225°
2026-05-07 10:38 58.15849 36.20220 32177 ft 235 kts 231°
2026-05-07 10:38 58.14762 36.17970 32301 ft 227 kts 237°
2026-05-07 10:39 58.13879 36.15576 32486 ft 218 kts 244°
2026-05-07 10:39 58.13206 36.13051 32603 ft 213 kts 251°
2026-05-07 10:39 58.12762 36.10377 32561 ft 215 kts 258°
2026-05-07 10:39 58.12555 36.07593 32458 ft 219 kts 265°
2026-05-07 10:40 58.12595 36.04688 32429 ft 222 kts 273°
2026-05-07 10:40 58.12902 36.01819 32511 ft 223 kts 281°
2026-05-07 10:40 58.13470 35.99082 32593 ft 225 kts 289°
2026-05-07 10:40 58.14296 35.96510 32560 ft 233 kts 297°
2026-05-07 10:41 58.15375 35.94136 32508 ft 243 kts 305°
2026-05-07 10:41 58.16693 35.92031 32493 ft 252 kts 313°
2026-05-07 10:41 58.18212 35.90289 32532 ft 259 kts 321°
2026-05-07 10:41 58.19897 35.88973 32600 ft 266 kts 329°
2026-05-07 10:42 58.21721 35.88114 32595 ft 275 kts 338°
2026-05-07 10:42 58.23664 35.87730 32528 ft 287 kts 346°
2026-05-07 10:42 58.25692 35.87848 32517 ft 296 kts 354°
2026-05-07 10:42 58.27750 35.88488 32549 ft 303 kts
2026-05-07 10:43 58.31779 35.91316 32631 ft 317 kts 17°
2026-05-07 10:43 58.35531 35.96155 32525 ft 334 kts 33°
2026-05-07 10:44 58.38713 36.02677 32650 ft 338 kts 49°
2026-05-07 10:44 58.41125 36.10472 32585 ft 346 kts 63°
2026-05-07 10:45 58.42683 36.19198 32609 ft 347 kts 77°
2026-05-07 10:45 58.43307 36.28267 32677 ft 344 kts 91°
2026-05-07 10:46 58.43009 36.37358 32599 ft 343 kts 104°
2026-05-07 10:46 58.41848 36.46040 32683 ft 333 kts 117°
2026-05-07 10:47 58.39925 36.53943 32662 ft 326 kts 130°
2026-05-07 10:47 58.37330 36.60837 32666 ft 313 kts 142°
2026-05-07 10:48 58.34264 36.66335 32749 ft 299 kts 154°
2026-05-07 10:48 58.32537 36.68593 32671 ft 296 kts 161°
2026-05-07 10:48 58.30768 36.70420 32628 ft 291 kts 167°
2026-05-07 10:49 58.28929 36.71877 32686 ft 282 kts 173°
2026-05-07 10:49 58.27084 36.72930 32756 ft 273 kts 180°
2026-05-07 10:49 58.25241 36.73581 32745 ft 267 kts 186°
2026-05-07 10:49 58.23405 36.73830 32679 ft 262 kts 192°
2026-05-07 10:50 58.21600 36.73678 32664 ft 257 kts 198°
2026-05-07 10:50 58.19866 36.73142 32700 ft 249 kts 205°
2026-05-07 10:50 58.18229 36.72247 32770 ft 241 kts 211°
2026-05-07 10:50 58.16708 36.71008 32773 ft 236 kts 217°
2026-05-07 10:51 58.15307 36.69432 32712 ft 233 kts 224°
2026-05-07 10:51 58.14048 36.67540 32690 ft 229 kts 230°
2026-05-07 10:51 58.12961 36.65384 32726 ft 224 kts 237°
2026-05-07 10:51 58.12067 36.63010 32778 ft 220 kts 243°
2026-05-07 10:52 58.11373 36.60447 32775 ft 219 kts 250°
2026-05-07 10:52 58.10888 36.57718 32740 ft 219 kts 257°
2026-05-07 10:52 58.10626 36.54875 32741 ft 220 kts 264°
2026-05-07 10:52 58.10592 36.51986 32720 ft 221 kts 270°
2026-05-07 10:53 58.10785 36.49083 32667 ft 225 kts 277°
2026-05-07 10:53 58.11038 36.47172 32638 ft 228 kts 282°
2026-05-07 10:53 58.11853 36.43423 32652 ft 233 kts 291°
2026-05-07 10:53 58.12402 36.41671 32696 ft 235 kts 295°
2026-05-07 10:54 58.13403 36.39206 32746 ft 239 kts 302°
2026-05-07 10:54 58.14606 36.36977 32715 ft 246 kts 309°
2026-05-07 10:54 58.16003 36.35015 32668 ft 254 kts 316°
2026-05-07 10:54 58.17573 36.33371 32695 ft 261 kts 323°
2026-05-07 10:55 58.19282 36.32103 32768 ft 267 kts 330°
2026-05-07 10:55 58.21103 36.31242 32808 ft 273 kts 337°
2026-05-07 10:55 58.23017 36.30801 32799 ft 281 kts 345°
2026-05-07 10:55 58.25009 36.30795 32766 ft 292 kts 351°
2026-05-07 10:56 58.29130 36.32148 32771 ft 308 kts
2026-05-07 10:56 58.33135 36.35353 32845 ft 319 kts 19°
2026-05-07 10:57 58.36858 36.40322 32757 ft 334 kts 33°
2026-05-07 10:57 58.40049 36.46839 32869 ft 339 kts 48°
2026-05-07 10:58 58.42522 36.54565 32833 ft 346 kts 62°
2026-05-07 10:58 58.44202 36.63222 32813 ft 350 kts 75°
2026-05-07 10:59 58.45023 36.72365 32868 ft 346 kts 88°
2026-05-07 10:59 58.45096 36.76910 33005 ft 339 kts 94°
2026-05-07 10:59 58.44949 36.81395 32980 ft 339 kts 101°
2026-05-07 11:00 58.44583 36.85856 32842 ft 341 kts 107°
2026-05-07 11:00 58.43996 36.90242 32775 ft 340 kts 114°
2026-05-07 11:00 58.42226 36.98387 32979 ft 324 kts 127°
2026-05-07 11:01 58.39764 37.05452 32868 ft 319 kts 140°
2026-05-07 11:01 58.36684 37.11325 32880 ft 305 kts 153°
2026-05-07 11:02 58.35007 37.13695 32973 ft 296 kts 159°
2026-05-07 11:02 58.33263 37.15672 32974 ft 289 kts 166°
2026-05-07 11:02 58.31473 37.17242 32895 ft 285 kts 172°
2026-05-07 11:02 58.29584 37.18449 32833 ft 280 kts 178°
2026-05-07 11:03 58.27710 37.19230 32841 ft 272 kts 184°
2026-05-07 11:03 58.25862 37.19618 32905 ft 263 kts 190°
2026-05-07 11:03 58.24077 37.19624 32922 ft 257 kts 196°
2026-05-07 11:03 58.22317 37.19252 32860 ft 252 kts 201°
2026-05-07 11:04 58.20624 37.18498 32815 ft 248 kts 208°
2026-05-07 11:04 58.19025 37.17378 32824 ft 242 kts 214°
2026-05-07 11:04 58.17551 37.15927 32877 ft 236 kts 220°
2026-05-07 11:04 58.16223 37.14175 32900 ft 230 kts 227°
2026-05-07 11:05 58.15051 37.12142 32872 ft 228 kts 233°
2026-05-07 11:05 58.14044 37.09844 32833 ft 226 kts 240°
2026-05-07 11:05 58.13226 37.07327 32847 ft 223 kts 246°
2026-05-07 11:05 58.12613 37.04651 32874 ft 221 kts 253°
2026-05-07 11:06 58.12215 37.01863 32896 ft 220 kts 259°
2026-05-07 11:06 58.12036 36.98990 32880 ft 221 kts 266°
2026-05-07 11:06 58.12083 36.96074 32860 ft 223 kts 273°
2026-05-07 11:06 58.12360 36.93166 32861 ft 226 kts 279°
2026-05-07 11:07 58.12863 36.90335 32888 ft 228 kts 287°
2026-05-07 11:07 58.13588 36.87645 32973 ft 231 kts 293°
2026-05-07 11:07 58.14528 36.85156 32999 ft 235 kts 300°
2026-05-07 11:07 58.15680 36.82888 32974 ft 243 kts 308°
2026-05-07 11:08 58.17033 36.80878 32915 ft 252 kts 315°
2026-05-07 11:08 58.18568 36.79176 32912 ft 259 kts 322°
2026-05-07 11:08 58.20251 36.77843 32970 ft 265 kts 329°
2026-05-07 11:08 58.22052 36.76915 33011 ft 272 kts 336°
2026-05-07 11:09 58.23952 36.76415 33013 ft 280 kts 343°
2026-05-07 11:09 58.25935 36.76353 32978 ft 290 kts 351°
2026-05-07 11:09 58.27971 36.76741 32980 ft 298 kts 358°
2026-05-07 11:09 58.30014 36.77590 33044 ft 303 kts
2026-05-07 11:10 58.33984 36.80650 33077 ft 315 kts 19°
2026-05-07 11:10 58.37663 36.85446 33004 ft 331 kts 32°
2026-05-07 11:11 58.40884 36.91835 33051 ft 337 kts 46°
2026-05-07 11:11 58.43405 36.99414 33067 ft 342 kts 60°
2026-05-07 11:12 58.45165 37.07938 33037 ft 347 kts 73°
2026-05-07 11:12 58.46088 37.16932 33114 ft 344 kts 85°
2026-05-07 11:13 58.46168 37.26063 33068 ft 344 kts 98°
2026-05-07 11:13 58.45443 37.35020 33080 ft 338 kts 109°
2026-05-07 11:14 58.43980 37.43456 33081 ft 332 kts 121°
2026-05-07 11:14 58.41853 37.51114 33158 ft 321 kts 132°
2026-05-07 11:15 58.39158 37.57751 33122 ft 314 kts 143°
2026-05-07 11:15 58.35974 37.63260 33116 ft 304 kts 154°
2026-05-07 11:16 58.34260 37.65522 33145 ft 296 kts 160°
2026-05-07 11:16 58.32489 37.67442 33146 ft 291 kts 166°
2026-05-07 11:16 58.30660 37.69022 33105 ft 287 kts 171°
2026-05-07 11:16 58.28792 37.70252 33071 ft 282 kts 176°
2026-05-07 11:17 58.26913 37.71127 33105 ft 275 kts 182°
2026-05-07 11:17 58.25048 37.71650 33139 ft 267 kts 187°
2026-05-07 11:17 58.23213 37.71827 33131 ft 262 kts 193°
2026-05-07 11:17 58.21410 37.71663 33097 ft 257 kts 198°
2026-05-07 11:18 58.19656 37.71163 33074 ft 252 kts 204°
2026-05-07 11:18 58.17977 37.70342 33100 ft 246 kts 209°
2026-05-07 11:18 58.16394 37.69220 33124 ft 240 kts 215°
2026-05-07 11:18 58.14923 37.67810 33121 ft 235 kts 220°
2026-05-07 11:19 58.13569 37.66118 33097 ft 232 kts 226°
2026-05-07 11:19 58.12349 37.64162 33072 ft 228 kts 232°
2026-05-07 11:19 58.11280 37.61977 33101 ft 224 kts 238°
2026-05-07 11:19 58.10378 37.59602 33122 ft 221 kts 243°
2026-05-07 11:20 58.09655 37.57066 33089 ft 219 kts 249°
2026-05-07 11:20 58.09117 37.54370 33030 ft 220 kts 255°
2026-05-07 11:20 58.08777 37.51539 32983 ft 222 kts 261°
2026-05-07 11:20 58.08645 37.48640 33012 ft 221 kts 268°
2026-05-07 11:21 58.08728 37.45748 33081 ft 220 kts 274°
2026-05-07 11:21 58.09020 37.42940 33104 ft 222 kts 280°
2026-05-07 11:21 58.09529 37.40153 33059 ft 227 kts 287°
2026-05-07 11:21 58.10255 37.37455 33015 ft 233 kts 293°
2026-05-07 11:22 58.11188 37.34913 33030 ft 237 kts 300°
2026-05-07 11:22 58.12311 37.32595 33091 ft 241 kts 307°
2026-05-07 11:22 58.13609 37.30543 33137 ft 246 kts 313°
2026-05-07 11:22 58.15072 37.28778 33094 ft 254 kts 320°
2026-05-07 11:23 58.16690 37.27320 33061 ft 262 kts 327°
2026-05-07 11:23 58.18439 37.26210 33061 ft 269 kts 333°
2026-05-07 11:23 58.20288 37.25487 33101 ft 274 kts 340°
2026-05-07 11:23 58.22205 37.25177 33181 ft 280 kts 346°
2026-05-07 11:24 58.24177 37.25297 33198 ft 287 kts 353°
2026-05-07 11:24 58.26178 37.25851 33181 ft 295 kts
2026-05-07 11:24 58.30178 37.28289 33159 ft 309 kts 14°
2026-05-07 11:25 58.33956 37.32457 33219 ft 319 kts 27°
2026-05-07 11:25 58.37312 37.38203 33190 ft 330 kts 41°
2026-05-07 11:26 58.40083 37.45274 33218 ft 336 kts 54°
2026-05-07 11:26 58.42139 37.53332 33237 ft 341 kts 67°
2026-05-07 11:27 58.43404 37.62052 33293 ft 342 kts 79°
2026-05-07 11:27 58.43850 37.71092 33224 ft 344 kts 92°
2026-05-07 11:28 58.43495 37.80147 33248 ft 340 kts 103°
2026-05-07 11:28 58.42384 37.88821 33271 ft 335 kts 115°
2026-05-07 11:29 58.40571 37.96931 33235 ft 330 kts 126°
2026-05-07 11:29 58.38158 38.04198 33280 ft 320 kts 137°
2026-05-07 11:30 58.35240 38.10448 33214 ft 312 kts 147°
2026-05-07 11:30 58.31924 38.15550 33277 ft 301 kts 157°
2026-05-07 11:31 58.30186 38.17604 33266 ft 296 kts 162°
2026-05-07 11:31 58.28340 38.19394 33227 ft 292 kts 168°
2026-05-07 11:31 58.26473 38.20830 33206 ft 287 kts 173°
2026-05-07 11:31 58.24607 38.21921 33229 ft 281 kts 178°
2026-05-07 11:32 58.20844 38.23128 33233 ft 269 kts 188°
2026-05-07 11:32 58.18989 38.23223 33216 ft 264 kts 194°
2026-05-07 11:32 58.17172 38.22981 33198 ft 259 kts 199°
2026-05-07 11:33 58.15415 38.22412 33218 ft 254 kts 204°
2026-05-07 11:33 58.13733 38.21528 33226 ft 248 kts 210°
2026-05-07 11:33 58.12148 38.20344 33222 ft 243 kts 216°
2026-05-07 11:33 58.10664 38.18864 33214 ft 239 kts 221°
2026-05-07 11:34 58.09301 38.17111 33215 ft 235 kts 226°
2026-05-07 11:34 58.08078 38.15116 33225 ft 230 kts 232°
2026-05-07 11:34 58.07006 38.12900 33231 ft 227 kts 238°
2026-05-07 11:34 58.06097 38.10487 33231 ft 224 kts 244°
2026-05-07 11:35 58.05363 38.07905 33220 ft 222 kts 250°
2026-05-07 11:35 58.04815 38.05189 33226 ft 221 kts 256°
2026-05-07 11:35 58.04460 38.02380 33237 ft 220 kts 262°
2026-05-07 11:35 58.04306 37.99511 33245 ft 220 kts 268°
2026-05-07 11:36 58.04355 37.96627 33248 ft 221 kts 274°
2026-05-07 11:36 58.04609 37.93759 33243 ft 223 kts 279°
2026-05-07 11:36 58.05067 37.90950 33248 ft 225 kts 286°
2026-05-07 11:36 58.05726 37.88245 33256 ft 228 kts 292°
2026-05-07 11:37 58.06581 37.85690 33275 ft 232 kts 298°
2026-05-07 11:37 58.07622 37.83326 33274 ft 237 kts 304°
2026-05-07 11:37 58.08842 37.81183 33250 ft 242 kts 311°
2026-05-07 11:37 58.10230 37.79300 33248 ft 248 kts 317°
2026-05-07 11:38 58.11763 37.77722 33280 ft 254 kts 324°
2026-05-07 11:38 58.13429 37.76479 33297 ft 260 kts 330°
2026-05-07 11:38 58.15202 37.75602 33296 ft 267 kts 337°
2026-05-07 11:38 58.17064 37.75107 33287 ft 274 kts 343°
2026-05-07 11:39 58.18996 37.75014 33308 ft 282 kts 349°
2026-05-07 11:39 58.20977 37.75335 33301 ft 289 kts 356°
2026-05-07 11:39 58.22974 37.76078 33331 ft 296 kts
2026-05-07 11:40 58.26251 37.78246 33349 ft 306 kts 13°
2026-05-07 11:40 58.30014 37.82362 33313 ft 319 kts 26°
2026-05-07 11:41 58.33892 37.89006 33368 ft 328 kts 41°
2026-05-07 11:41 58.36634 37.96086 33315 ft 338 kts 54°
2026-05-07 11:42 58.38431 38.02797 33341 ft 341 kts 64°
2026-05-07 11:42 58.39888 38.11391 33408 ft 342 kts 76°
2026-05-07 11:43 58.40573 38.20366 33390 ft 341 kts 87°
2026-05-07 11:43 58.40623 38.24861 33494 ft 338 kts 93°
2026-05-07 11:43 58.40484 38.29317 33509 ft 336 kts 98°
2026-05-07 11:44 58.39655 38.38062 33387 ft 338 kts 109°
2026-05-07 11:44 58.38130 38.46420 33517 ft 329 kts 120°
2026-05-07 11:45 58.35995 38.54047 33458 ft 325 kts 131°
2026-05-07 11:45 58.33292 38.60856 33457 ft 318 kts 141°
2026-05-07 11:46 58.30171 38.66592 33523 ft 308 kts 152°
2026-05-07 11:46 58.26693 38.71178 33432 ft 301 kts 161°
2026-05-07 11:46 58.24858 38.73003 33450 ft 295 kts 166°
2026-05-07 11:47 58.22987 38.74502 33493 ft 289 kts 172°
2026-05-07 11:47 58.21097 38.75669 33493 ft 284 kts 177°
2026-05-07 11:47 58.19189 38.76507 33452 ft 280 kts 182°
2026-05-07 11:47 58.17276 38.77011 33437 ft 275 kts 187°
2026-05-07 11:48 58.15386 38.77182 33460 ft 269 kts 192°
2026-05-07 11:48 58.13542 38.77026 33491 ft 262 kts 198°
2026-05-07 11:48 58.11755 38.76548 33473 ft 257 kts 203°
2026-05-07 11:48 58.10030 38.75752 33427 ft 254 kts 208°
2026-05-07 11:49 58.08383 38.74645 33419 ft 249 kts 214°
2026-05-07 11:49 58.06842 38.73250 33452 ft 243 kts 219°
2026-05-07 11:49 58.05426 38.71589 33476 ft 237 kts 225°
2026-05-07 11:49 58.04142 38.69673 33425 ft 234 kts 230°
2026-05-07 11:50 58.02993 38.67509 33358 ft 233 kts 236°
2026-05-07 11:50 58.01994 38.65119 33342 ft 231 kts 242°
2026-05-07 11:50 58.01166 38.62567 33409 ft 226 kts 247°
2026-05-07 11:50 58.00521 38.59898 33456 ft 222 kts 253°
2026-05-07 11:51 58.00062 38.57127 33435 ft 221 kts 259°
2026-05-07 11:51 57.99795 38.54262 33384 ft 223 kts 265°
2026-05-07 11:51 57.99728 38.51336 33376 ft 224 kts 271°
2026-05-07 11:51 57.99867 38.48422 33421 ft 223 kts 277°
2026-05-07 11:52 58.00213 38.45576 33476 ft 223 kts 283°
2026-05-07 11:52 58.00765 38.42820 33468 ft 226 kts 290°
2026-05-07 11:52 58.01521 38.40181 33415 ft 231 kts 296°
2026-05-07 11:52 58.02475 38.37699 33401 ft 236 kts 302°
2026-05-07 11:53 58.03610 38.35439 33433 ft 239 kts 309°
2026-05-07 11:53 58.04911 38.33446 33480 ft 243 kts 315°
2026-05-07 11:53 58.06343 38.31775 33513 ft 249 kts 321°
2026-05-07 11:53 58.07941 38.30399 33490 ft 256 kts 328°
2026-05-07 11:54 58.09666 38.29374 33470 ft 264 kts 334°
2026-05-07 11:54 58.11488 38.28731 33493 ft 270 kts 341°
2026-05-07 11:54 58.13382 38.28492 33525 ft 276 kts 348°
2026-05-07 11:54 58.15318 38.28668 33527 ft 282 kts 354°
2026-05-07 11:55 58.17283 38.29264 33505 ft 290 kts
2026-05-07 11:55 58.19249 38.30281 33500 ft 296 kts
2026-05-07 11:55 58.21191 38.31718 33535 ft 303 kts 14°
2026-05-07 11:56 58.24905 38.35798 33545 ft 314 kts 26°
2026-05-07 11:56 58.28235 38.41349 33561 ft 324 kts 39°
2026-05-07 11:57 58.31046 38.48154 33552 ft 331 kts 51°
2026-05-07 11:57 58.33224 38.55947 33583 ft 336 kts 63°
2026-05-07 11:58 58.34691 38.64426 33579 ft 339 kts 75°
2026-05-07 11:58 58.35416 38.73321 33579 ft 340 kts 86°
2026-05-07 11:59 58.35391 38.82306 33622 ft 339 kts 97°
2026-05-07 11:59 58.34643 38.91153 33588 ft 338 kts 107°
2026-05-07 12:00 58.33232 38.99616 33638 ft 333 kts 117°
2026-05-07 12:00 58.31217 39.07482 33626 ft 329 kts 128°
2026-05-07 12:01 58.28685 39.14557 33633 ft 322 kts 137°
2026-05-07 12:01 58.25698 39.20766 33658 ft 315 kts 147°
2026-05-07 12:02 58.22350 39.25977 33649 ft 308 kts 156°
2026-05-07 12:02 58.18749 39.30116 33647 ft 298 kts 165°
2026-05-07 12:02 58.16883 39.31762 33641 ft 294 kts 169°
2026-05-07 12:03 58.14984 39.33118 33633 ft 290 kts 174°
2026-05-07 12:03 58.13062 39.34180 33633 ft 285 kts 178°
2026-05-07 12:03 58.11138 39.34943 33646 ft 280 kts 183°
2026-05-07 12:03 58.09223 39.35408 33653 ft 275 kts 187°
2026-05-07 12:04 58.07328 39.35577 33648 ft 270 kts 192°
2026-05-07 12:04 58.05464 39.35448 33647 ft 266 kts 197°
2026-05-07 12:04 58.03645 39.35027 33653 ft 261 kts 202°
2026-05-07 12:04 58.01886 39.34324 33665 ft 256 kts 207°
2026-05-07 12:05 58.00200 39.33347 33670 ft 251 kts 212°
2026-05-07 12:05 57.98600 39.32108 33677 ft 247 kts 216°
2026-05-07 12:05 57.97096 39.30619 33686 ft 242 kts 221°
2026-05-07 12:05 57.95699 39.28896 33694 ft 238 kts 226°
2026-05-07 12:06 57.94424 39.26960 33691 ft 234 kts 231°
2026-05-07 12:06 57.93277 39.24824 33688 ft 231 kts 236°
2026-05-07 12:06 57.92265 39.22506 33681 ft 228 kts 241°
2026-05-07 12:06 57.91402 39.20034 33693 ft 225 kts 246°
2026-05-07 12:07 57.90697 39.17435 33711 ft 222 kts 251°
2026-05-07 12:07 57.90157 39.14726 33709 ft 220 kts 256°
2026-05-07 12:07 57.89790 39.11938 33665 ft 220 kts 262°
2026-05-07 12:07 57.89598 39.09078 33612 ft 222 kts 267°
2026-05-07 12:08 57.89584 39.06206 33571 ft 223 kts 272°
2026-05-07 12:08 57.89751 39.03308 33601 ft 223 kts 278°
2026-05-07 12:08 57.90104 39.00439 33666 ft 222 kts 283°
2026-05-07 12:08 57.90632 38.97702 33690 ft 224 kts 289°
2026-05-07 12:09 57.91340 38.95057 33644 ft 229 kts 294°
2026-05-07 12:09 57.92224 38.92536 33604 ft 233 kts 300°
2026-05-07 12:09 57.93259 38.90219 33639 ft 236 kts 306°
2026-05-07 12:09 57.94459 38.88086 33682 ft 239 kts 311°
2026-05-07 12:10 57.95800 38.86196 33694 ft 243 kts 317°
2026-05-07 12:10 57.97278 38.84564 33666 ft 249 kts 323°
2026-05-07 12:10 57.98882 38.83216 33649 ft 256 kts 328°
2026-05-07 12:10 58.00591 38.82181 33662 ft 261 kts 334°
2026-05-07 12:11 58.02381 38.81491 33743 ft 265 kts 340°
2026-05-07 12:11 58.04233 38.81163 33791 ft 270 kts 346°
2026-05-07 12:11 58.06128 38.81205 33779 ft 276 kts 352°
2026-05-07 12:11 58.08067 38.81622 33730 ft 284 kts 358°
2026-05-07 12:12 58.10025 38.82423 33723 ft 291 kts
2026-05-07 12:12 58.11965 38.83607 33760 ft 296 kts 10°
2026-05-07 12:12 58.13865 38.85169 33794 ft 300 kts 16°
2026-05-07 12:13 58.17489 38.89396 33767 ft 313 kts 28°
2026-05-07 12:13 58.20757 38.95000 33794 ft 321 kts 40°
2026-05-07 12:14 58.23510 39.01770 33826 ft 328 kts 51°
2026-05-07 12:14 58.25657 39.09493 33806 ft 334 kts 63°
2026-05-07 12:15 58.27136 39.17919 33765 ft 340 kts 74°
2026-05-07 12:15 58.27916 39.26816 33801 ft 341 kts 85°
2026-05-07 12:16 58.27976 39.35775 33853 ft 339 kts 95°
2026-05-07 12:16 58.27337 39.44676 33782 ft 340 kts 105°
2026-05-07 12:17 58.26047 39.53228 33886 ft 334 kts 115°
2026-05-07 12:17 58.24157 39.61228 33817 ft 331 kts 125°
2026-05-07 12:18 58.21717 39.68549 33854 ft 324 kts 135°
2026-05-07 12:18 58.18827 39.74968 33870 ft 317 kts 144°
2026-05-07 12:19 58.15563 39.80390 33835 ft 310 kts 154°
2026-05-07 12:19 58.12006 39.84748 33913 ft 300 kts 163°
2026-05-07 12:19 58.10153 39.86495 33892 ft 296 kts 168°
2026-05-07 12:20 58.08258 39.87951 33861 ft 292 kts 173°
2026-05-07 12:20 58.06338 39.89110 33892 ft 287 kts 178°
2026-05-07 12:20 58.04417 39.89963 33869 ft 281 kts 181°
2026-05-07 12:20 58.02500 39.90510 33871 ft 277 kts 186°
2026-05-07 12:21 58.00591 39.90753 33846 ft 273 kts 191°
2026-05-07 12:21 57.98706 39.90691 33834 ft 269 kts 195°
2026-05-07 12:21 57.96868 39.90337 33873 ft 263 kts 200°
2026-05-07 12:21 57.95092 39.89698 33861 ft 258 kts 205°
2026-05-07 12:22 57.93378 39.88772 33839 ft 254 kts 210°
2026-05-07 12:22 57.91742 39.87568 33815 ft 251 kts 214°
2026-05-07 12:22 57.90196 39.86099 33832 ft 247 kts 220°
2026-05-07 12:22 57.88764 39.84395 33864 ft 241 kts 225°
2026-05-07 12:23 57.87455 39.82470 33872 ft 237 kts 230°
2026-05-07 12:23 57.86274 39.80329 33857 ft 235 kts 235°
2026-05-07 12:23 57.85233 39.77986 33826 ft 233 kts 240°
2026-05-07 12:23 57.84347 39.75470 33841 ft 229 kts 246°
2026-05-07 12:24 57.83627 39.72825 33866 ft 226 kts 251°
2026-05-07 12:24 57.83079 39.70074 33883 ft 224 kts 256°
2026-05-07 12:24 57.82710 39.67243 33874 ft 224 kts 262°
2026-05-07 12:24 57.82522 39.64349 33862 ft 224 kts 268°
2026-05-07 12:25 57.82521 39.61429 33875 ft 224 kts 273°
2026-05-07 12:25 57.82708 39.58531 33899 ft 224 kts 278°
2026-05-07 12:25 57.83082 39.55693 33916 ft 225 kts 284°
2026-05-07 12:25 57.83643 39.52934 33900 ft 228 kts 290°
2026-05-07 12:26 57.84387 39.50294 33909 ft 231 kts 296°
2026-05-07 12:26 57.85309 39.47817 33982 ft 232 kts 301°
2026-05-07 12:26 57.86393 39.45574 34069 ft 232 kts 307°
2026-05-07 12:26 57.87629 39.43581 34076 ft 237 kts 313°
2026-05-07 12:27 57.89026 39.41823 33996 ft 246 kts 319°
2026-05-07 12:27 57.90572 39.40328 33951 ft 254 kts 325°
2026-05-07 12:27 57.92214 39.39159 34007 ft 257 kts 331°
2026-05-07 12:27 57.93979 39.38314 34078 ft 260 kts 337°
2026-05-07 12:28 57.95766 39.37838 34067 ft 267 kts 343°
2026-05-07 12:28 57.97652 39.37702 34000 ft 276 kts 349°
2026-05-07 12:28 57.99595 39.37922 33964 ft 283 kts 354°
2026-05-07 12:28 58.01552 39.38513 34021 ft 287 kts
2026-05-07 12:29 58.03492 39.39474 34077 ft 290 kts
2026-05-07 12:29 58.05407 39.40799 34076 ft 297 kts 12°
2026-05-07 12:29 58.07298 39.42485 34022 ft 304 kts 18°
2026-05-07 12:30 58.10330 39.46063 34022 ft 313 kts 27°
2026-05-07 12:30 58.13650 39.51539 34093 ft 320 kts 38°
2026-05-07 12:31 58.16527 39.58191 34007 ft 332 kts 49°
2026-05-07 12:31 58.18835 39.65782 34116 ft 333 kts 60°